When you browse on this site, cookies collect data to enhance your experience and personalize the content and advertising you see.
Visit our Privacy Policy to learn more. By continuing to use the site, you agree to this use of cookies and data.
  • In United Kingdom
  • List of Countries
  • For 7 days
  • Water Temperature
  • Satellite Maps
  • Weather Map
  • Weather Widgets
  • user-avatar
    Login

    Hourly Weather Jelgava

    Today, 26 April, Friday

    Time Temperature Precipitation Wind Pressure Humidity
    00:00 +15°C° 0 mm 2 mps 762 mmHg 81%
    01:00 +15°C° 0 mm 2 mps 762 mmHg 82%
    02:00 +14°C° 0 mm 2 mps 762 mmHg 82%
    03:00 +14°C° 0 mm 2 mps 762 mmHg 83%
    04:00 +13°C° 0 mm 2 mps 762 mmHg 84%
    05:00 +13°C° 0 mm 2 mps 762 mmHg 85%
    06:00 +14°C° 0 mm 2 mps 762 mmHg 80%
    07:00 +14°C° 0 mm 3 mps 762 mmHg 75%
    08:00 +16°C° 0 mm 3 mps 762 mmHg 70%
    09:00 +18°C° 0 mm 3 mps 761 mmHg 65%
    10:00 +20°C° 0 mm 3 mps 761 mmHg 59%
    11:00 +22°C° 0 mm 3 mps 761 mmHg 53%
    12:00 +24°C° 0 mm 3 mps 760 mmHg 51%
    13:00 +24°C° 0 mm 3 mps 760 mmHg 48%
    14:00 +25°C° 0 mm 3 mps 760 mmHg 46%
    15:00 +25°C° 0 mm 3 mps 759 mmHg 46%
    16:00 +25°C° 0 mm 3 mps 759 mmHg 47%
    17:00 +25°C° 0 mm 3 mps 759 mmHg 47%
    18:00 +22°C° 0 mm 3 mps 759 mmHg 54%
    19:00 +20°C° 0 mm 2 mps 758 mmHg 60%
    20:00 +19°C° 0 mm 2 mps 758 mmHg 67%
    21:00 +18°C° 0 mm 2 mps 758 mmHg 70%
    22:00 +17°C° 0 mm 2 mps 758 mmHg 74%
    23:00 +16°C° 0 mm 2 mps 758 mmHg 77%

    Tomorrow, 27 April, Saturday

    Time Temperature Precipitation Wind Pressure Humidity
    00:00 +15°C° 0 mm 2 mps 758 mmHg 80%
    01:00 +15°C° 0 mm 2 mps 757 mmHg 82%
    02:00 +14°C° 0 mm 2 mps 757 mmHg 85%
    03:00 +14°C° 0 mm 2 mps 757 mmHg 87%
    04:00 +13°C° 0 mm 2 mps 757 mmHg 89%
    05:00 +13°C° 0 mm 1 mps 757 mmHg 92%
    06:00 +15°C° 0 mm 1 mps 756 mmHg 86%
    07:00 +16°C° 0 mm 2 mps 756 mmHg 80%
    08:00 +18°C° 0 mm 2 mps 756 mmHg 74%
    09:00 +19°C° 0 mm 2 mps 756 mmHg 68%
    10:00 +21°C° 0 mm 2 mps 756 mmHg 63%
    11:00 +24°C° 0 mm 2 mps 756 mmHg 57%
    12:00 +25°C° 0 mm 2 mps 755 mmHg 54%
    13:00 +25°C° 0 mm 2 mps 755 mmHg 51%
    14:00 +26°C° 0 mm 2 mps 755 mmHg 48%
    15:00 +26°C° 0 mm 2 mps 755 mmHg 49%
    16:00 +25°C° 0 mm 3 mps 754 mmHg 51%
    17:00 +24°C° 0 mm 3 mps 754 mmHg 53%
    18:00 +21°C° 0.2 mm 3 mps 754 mmHg 59%
    19:00 +19°C° 0.2 mm 3 mps 754 mmHg 65%
    20:00 +17°C° 0.2 mm 2 mps 754 mmHg 72%
    21:00 +17°C° 0 mm 2 mps 755 mmHg 74%
    22:00 +16°C° 0 mm 2 mps 755 mmHg 75%
    23:00 +16°C° 0 mm 2 mps 755 mmHg 77%

    Day after tomorrow, 28 April, Sunday

    Time Temperature Precipitation Wind Pressure Humidity
    00:00 +16°C° 0 mm 3 mps 755 mmHg 77%
    01:00 +14°C° 0 mm 3 mps 756 mmHg 78%
    02:00 +14°C° 0 mm 3 mps 756 mmHg 78%
    03:00 +14°C° 0 mm 3 mps 756 mmHg 80%
    04:00 +13°C° 0 mm 4 mps 757 mmHg 81%
    05:00 +13°C° 0 mm 4 mps 757 mmHg 83%
    06:00 +14°C° 0 mm 5 mps 758 mmHg 79%
    07:00 +14°C° 0 mm 5 mps 758 mmHg 76%
    08:00 +15°C° 0 mm 5 mps 759 mmHg 73%
    09:00 +16°C° 0 mm 5 mps 759 mmHg 68%
    10:00 +17°C° 0 mm 5 mps 760 mmHg 62%
    11:00 +17°C° 0 mm 5 mps 760 mmHg 56%
    12:00 +19°C° 0 mm 5 mps 760 mmHg 52%
    13:00 +20°C° 0 mm 5 mps 761 mmHg 49%
    14:00 +20°C° 0 mm 5 mps 761 mmHg 45%
    15:00 +20°C° 0 mm 5 mps 761 mmHg 43%
    16:00 +19°C° 0 mm 5 mps 762 mmHg 42%
    17:00 +19°C° 0 mm 5 mps 762 mmHg 40%
    18:00 +16°C° 0 mm 5 mps 762 mmHg 41%
    19:00 +14°C° 0 mm 4 mps 763 mmHg 42%
    20:00 +12°C° 0 mm 4 mps 764 mmHg 43%
    21:00 +11°C° 0 mm 4 mps 764 mmHg 44%
    22:00 +10°C° 0 mm 4 mps 765 mmHg 45%
    23:00 +7°C° 0 mm 4 mps 765 mmHg 46%

    29 April, Monday

    Time Temperature Precipitation Wind Pressure Humidity
    00:00 +7°C° 0 mm 4 mps 766 mmHg 47%
    01:00 +7°C° 0 mm 3 mps 766 mmHg 49%
    02:00 +5°C° 0 mm 3 mps 766 mmHg 51%
    03:00 +5°C° 0 mm 3 mps 767 mmHg 52%
    04:00 +4°C° 0 mm 3 mps 767 mmHg 54%
    05:00 +4°C° 0 mm 3 mps 767 mmHg 56%
    06:00 +5°C° 0 mm 3 mps 767 mmHg 54%
    07:00 +7°C° 0 mm 3 mps 767 mmHg 52%
    08:00 +8°C° 0 mm 3 mps 767 mmHg 50%
    09:00 +10°C° 0 mm 3 mps 767 mmHg 45%
    10:00 +11°C° 0 mm 4 mps 767 mmHg 40%
    11:00 +12°C° 0 mm 4 mps 767 mmHg 35%
    12:00 +13°C° 0 mm 4 mps 767 mmHg 34%
    13:00 +14°C° 0 mm 3 mps 766 mmHg 32%
    14:00 +16°C° 0 mm 3 mps 766 mmHg 31%
    15:00 +16°C° 0 mm 3 mps 766 mmHg 31%
    16:00 +14°C° 0 mm 3 mps 765 mmHg 32%
    17:00 +14°C° 0 mm 3 mps 765 mmHg 33%
    18:00 +13°C° 0 mm 2 mps 765 mmHg 38%
    19:00 +12°C° 0 mm 2 mps 765 mmHg 44%
    20:00 +9°C° 0 mm 2 mps 765 mmHg 50%
    21:00 +8°C° 0 mm 2 mps 765 mmHg 51%
    22:00 +8°C° 0 mm 1 mps 765 mmHg 53%
    23:00 +7°C° 0 mm 1 mps 765 mmHg 55%

    30 April, Tuesday

    Time Temperature Precipitation Wind Pressure Humidity
    00:00 +7°C° 0 mm 1 mps 765 mmHg 56%
    01:00 +6°C° 0 mm 1 mps 765 mmHg 57%
    02:00 +6°C° 0 mm 1 mps 765 mmHg 58%
    03:00 +5°C° 0 mm 1 mps 764 mmHg 59%
    04:00 +5°C° 0 mm 1 mps 764 mmHg 60%
    05:00 +4°C° 0 mm 1 mps 764 mmHg 62%
    06:00 +6°C° 0 mm 1 mps 764 mmHg 57%
    07:00 +8°C° 0 mm 1 mps 764 mmHg 52%
    08:00 +10°C° 0 mm 1 mps 764 mmHg 48%
    09:00 +12°C° 0 mm 2 mps 764 mmHg 43%
    10:00 +13°C° 0 mm 2 mps 763 mmHg 39%
    11:00 +13°C° 0 mm 3 mps 763 mmHg 34%
    12:00 +14°C° 0 mm 3 mps 763 mmHg 33%
    13:00 +14°C° 0 mm 4 mps 763 mmHg 32%
    14:00 +14°C° 0 mm 4 mps 762 mmHg 31%
    15:00 +13°C° 0 mm 4 mps 762 mmHg 33%
    16:00 +13°C° 0 mm 4 mps 762 mmHg 34%
    17:00 +12°C° 0 mm 4 mps 762 mmHg 36%
    18:00 +10°C° 0 mm 4 mps 762 mmHg 41%
    19:00 +9°C° 0 mm 3 mps 762 mmHg 47%
    20:00 +7°C° 0 mm 3 mps 762 mmHg 52%
    21:00 +5°C° 0 mm 3 mps 762 mmHg 54%
    22:00 +5°C° 0 mm 3 mps 762 mmHg 57%
    23:00 +5°C° 0 mm 2 mps 762 mmHg 59%

    1 May, Wednesday

    Time Temperature Precipitation Wind Pressure Humidity
    00:00 +5°C° 0 mm 2 mps 762 mmHg 63%
    01:00 +4°C° 0 mm 2 mps 762 mmHg 66%
    02:00 +4°C° 0 mm 2 mps 762 mmHg 69%
    03:00 +3°C° 0 mm 2 mps 761 mmHg 73%
    04:00 +4°C° 0 mm 1 mps 761 mmHg 76%
    05:00 +4°C° 0 mm 1 mps 761 mmHg 80%
    06:00 +6°C° 0 mm 1 mps 761 mmHg 73%
    07:00 +8°C° 0 mm 1 mps 761 mmHg 66%
    08:00 +10°C° 0 mm 1 mps 761 mmHg 59%
    09:00 +12°C° 0 mm 1 mps 760 mmHg 54%
    10:00 +14°C° 0 mm 1 mps 760 mmHg 48%
    11:00 +15°C° 0 mm 1 mps 760 mmHg 43%
    12:00 +16°C° 0 mm 1 mps 759 mmHg 40%
    13:00 +16°C° 0 mm 2 mps 759 mmHg 37%
    14:00 +17°C° 0 mm 2 mps 758 mmHg 34%
    15:00 +16°C° 0 mm 3 mps 758 mmHg 36%
    16:00 +16°C° 0 mm 3 mps 757 mmHg 38%
    17:00 +15°C° 0 mm 4 mps 757 mmHg 39%
    18:00 +13°C° 0 mm 3 mps 757 mmHg 45%
    19:00 +11°C° 0 mm 3 mps 756 mmHg 50%
    20:00 +9°C° 0 mm 3 mps 756 mmHg 55%
    21:00 +8°C° 0 mm 3 mps 756 mmHg 56%
    22:00 +7°C° 0 mm 3 mps 755 mmHg 57%
    23:00 +5°C° 0 mm 3 mps 755 mmHg 58%
    Show more